Location: Browne Barr
(41.2080°N, 111.9480°W)
Time: 06:15:17
(UTC+00:00)

X-37B - Pass Details

Date: 07 August 2021
Orbit: 381 x 393 km, 45.0° (Epoch: 29 August)

Event Time Altitude Azimuth Distance (km) Brightness Sun altitude
Exits shadow 11:46:56 - 289° (WNW) 1,996 3.8 -8.0°
Reaches altitude 10° 11:48:26 10° 294° (WNW) 1,397 3.1 -7.8°
Maximum altitude 11:51:27 43° 8° (N) 548 1.7 -7.3°
Drops below altitude 10° 11:54:28 10° 82° (E) 1,397 4.7 -6.8°
Sets 11:56:36 0° 89° (E) 2,250 5.7 -6.4°
